Miscellaneous Local Product
Issued by NWS North Platte, NE

Home | Current Version | Previous Version | Graphics & Text | Print | Product List | Glossary On
Versions: 1 2 3 4 5 6 7 8 9 10 11 12 13 14 15 16 17 18 19 20 21 22 23 24 25 26 27 28 29 30 31 32 33 34 35 36 37 38 39 40 41 42 43 44 45 46 47 48 49 50
000
AXUS43 KLBF 291010
MISLBF


WESTERN AND NORTH CENTRAL NEBRASKA HOURLY WEATHER ROUNDUP
NATIONAL WEATHER SERVICE NORTH PLATTE NE
500 AM CDT MON AUG 29 2016

NOTE: "FAIR" INDICATES FEW OR NO CLOUDS BELOW 12,000 FEET WITH NO
SIGNIFICANT WEATHER AND/OR OBSTRUCTIONS TO VISIBILITY.

NOTE: STATIONS NOT REPORTING VARIABLES SUCH AS SKY/WEATHER OR
PRESSURE ARE PROVIDED BY RAWS AND APRS NETWORKS AND ARE NOT UNDER
NATIONAL WEATHER SERVICE QUALITY CONTROL.

...OBSERVATIONS IN AND NEAR THE EASTERN PANHANDLE OF NEBRASKA...

CITY           SKY/WX    TMP DP  RH WIND       PRES   REMARKS
PINE RIDGE     PTCLDY    63  59  87 SW6       30.14R
CHADRON        PTCLDY    56  51  84 SW3       30.13S
ALLIANCE       CLEAR     55  52  89 CALM      30.17S
SIDNEY         CLOUDY    54  49  83 NW7       30.21S
CRESCENT LAKE    N/A     60  57  90 CALM        N/A
$$

...OBSERVATIONS IN NORTHERN NEBRASKA AND FAR SOUTHERN SOUTH DAKOTA...

CITY           SKY/WX    TMP DP  RH WIND       PRES   REMARKS
WINNER         FAIR      71  61  70 SW9       30.08S
VALENTINE      PTCLDY    62  56  80 W3        30.12S
THEDFORD       CLEAR     64  60  87 SE5       30.15S
AINSWORTH      CLEAR     63  61  94 S7        30.14S
O`NEILL        CLEAR     68  66  92 S5        30.14S
ORD            MOCLDY    67  60  78 SE3       30.13F
BROKEN BOW     CLOUDY    67  64  90 S6        30.16S
VALENTINE NWR    N/A     61  59  92 S5          N/A
BUTTE            N/A     67  65  93 S8          N/A
HALSEY           N/A     65  60  82 SE5         N/A
EWING            N/A     67  65  93 CALM        N/A
$$

...OBSERVATIONS IN SOUTHWEST NEBRASKA AND FAR NORTHEAST COLORADO...

CITY           SKY/WX    TMP DP  RH WIND       PRES   REMARKS
HOLYOKE        FAIR      59  55  88 W6        30.16F
IMPERIAL       CLEAR     64  61  90 CALM      30.14S
OGALLALA       CLEAR     65  60  86 CALM      30.15S
NORTH PLATTE   MOCLDY    65  63  93 SE8       30.15R
MCCOOK         TSTM      67  64  90 E12       30.17S
LEXINGTON      CLOUDY    67  64  88 S6        30.17F
STAPLETON        N/A     64  62  93 CALM        N/A
GOTHENBURG       N/A     68  62  80 SE6         N/A
CALLAWAY         N/A     66  65  98 S12         N/A
$$

...OBSERVATIONS IN CENTRAL LINCOLN COUNTY AREA...

CITY           SKY/WX    TMP DP  RH WIND       PRES   REMARKS
N.P. AIRPORT   MOCLDY    65  63  93 SE8       30.15R
N.P. DOWNTOWN    N/A     65  62  89 CALM        N/A
N.P. SOUTHEAST   N/A     64  61  90 CALM        N/A
N.P. HILLCREST   N/A     65  62  91 SE10        N/A
$$

...SOME OBSERVATIONS FROM AROUND THE REGION...

CITY           SKY/WX    TMP DP  RH WIND       PRES   REMARKS
DENVER         CLOUDY    63  46  54 SW21G29   30.25F
LARAMIE        CLOUDY    46  37  71 SW6       30.36S
CHEYENNE       CLOUDY    57  43  59 W7        30.29R
SCOTTSBLUFF    CLEAR     56  52  86 E6        30.18R
RAPID CITY     CLEAR     65  46  50 N17       30.12R
BISMARCK       CLOUDY    67  52  58 N7        30.13R
PIERRE         CLEAR     68  58  70 S5        30.03R
SIOUX FALLS    PTCLDY    69  68  96 S6        30.13S
OMAHA          CLOUDY    71  66  84 SE5       30.14S
GRAND ISLAND   CLOUDY    67  61  81 SE15      30.11F
KANSAS CITY    MOCLDY    71  67  87 E6        30.14R
WICHITA        PTCLDY    72  69  90 CALM      30.12S
OKLAHOMA CITY  PTCLDY    71  67  87 CALM      30.09R
DALLAS         CLEAR     75  70  84 E6        30.02R
AMARILLO       CLOUDY    66  64  93 SE9       30.20S
DODGE CITY     CLOUDY    65  64  97 E6        30.17R FOG
HAYS           CLOUDY    66  59  77 NE6       30.16S
GOODLAND       CLOUDY    61  59  93 SW3       30.17F
$$




USA.gov is the U.S. government's official web portal to all federal, state and local government web resources and services.